TimeMDT,TemperatureF,Dew PointF,Humidity,Sea Level PressureIn,VisibilityMPH,Wind Direction,Wind SpeedMPH,Gust SpeedMPH,PrecipitationIn,Events,Conditions,WindDirDegrees,DateUTC
12:53 AM,62.1,55.9,80,29.59,10.0,SE,6.9,-,N/A,,Clear,140,2013-06-20 06:53:00
1:53 AM,64.9,52.0,63,29.59,10.0,WNW,13.8,-,N/A,,Clear,290,2013-06-20 07:53:00
2:53 AM,60.1,25.0,26,29.62,10.0,WNW,12.7,-,N/A,,Clear,300,2013-06-20 08:53:00
3:53 AM,61.0,21.0,21,29.62,10.0,NW,17.3,26.5,N/A,,Clear,310,2013-06-20 09:53:00
4:53 AM,59.0,19.9,22,29.64,10.0,NW,12.7,20.7,N/A,,Clear,320,2013-06-20 10:53:00
5:53 AM,60.1,19.0,20,29.66,10.0,NW,17.3,24.2,N/A,,Clear,310,2013-06-20 11:53:00
6:53 AM,61.0,14.0,16,29.68,10.0,NW,16.1,21.9,N/A,,Clear,310,2013-06-20 12:53:00
7:53 AM,64.9,14.0,14,29.71,10.0,NW,15.0,24.2,N/A,,Clear,320,2013-06-20 13:53:00
8:53 AM,69.1,15.1,13,29.73,10.0,NW,11.5,19.6,N/A,,Clear,320,2013-06-20 14:53:00
9:53 AM,73.0,17.1,12,29.72,10.0,North,12.7,-,N/A,,Clear,350,2013-06-20 15:53:00
10:53 AM,75.0,15.1,10,29.73,10.0,NNW,4.6,-,N/A,,Clear,340,2013-06-20 16:53:00
11:53 AM,77.0,16.0,10,29.73,10.0,NE,9.2,-,N/A,,Clear,50,2013-06-20 17:53:00
12:53 PM,78.1,18.0,10,29.73,10.0,Variable,6.9,-,N/A,,Clear,0,2013-06-20 18:53:00
1:53 PM,81.0,19.9,10,29.70,10.0,Variable,3.5,16.1,N/A,,Clear,0,2013-06-20 19:53:00
2:53 PM,82.9,19.9,10,29.70,10.0,South,6.9,17.3,N/A,,Clear,180,2013-06-20 20:53:00
3:53 PM,82.9,19.9,10,29.69,10.0,SE,15.0,20.7,N/A,,Clear,130,2013-06-20 21:53:00
4:53 PM,82.9,19.9,10,29.68,10.0,ESE,15.0,23.0,N/A,,Clear,120,2013-06-20 22:53:00
5:53 PM,81.0,21.0,11,29.68,10.0,ESE,15.0,24.2,N/A,,Clear,120,2013-06-20 23:53:00
6:53 PM,79.0,27.0,15,29.68,10.0,ESE,15.0,25.3,N/A,,Clear,120,2013-06-21 00:53:00
7:53 PM,75.9,33.1,21,29.69,10.0,SE,12.7,17.3,N/A,,Clear,130,2013-06-21 01:53:00
8:53 PM,71.1,42.1,35,29.71,10.0,East,11.5,-,N/A,,Clear,90,2013-06-21 02:53:00
9:53 PM,66.9,46.9,49,29.74,10.0,NE,5.8,-,N/A,,Clear,50,2013-06-21 03:53:00
10:53 PM,64.0,46.9,54,29.76,10.0,NNE,5.8,-,N/A,,Clear,20,2013-06-21 04:53:00
11:53 PM,62.1,48.0,60,29.76,10.0,North,3.5,-,N/A,,Clear,10,2013-06-21 05:53:00